SCP
0 0 0 0 0 0 0 0 0 0 0 0 0 0 0 0 0 0 0 0 0 0 0 0 0 0 0 0 0 0 0 0 0 0 0 0 0 0 0 0 0 0 1
0 0 0 0 0 0 0 0 0 0 0 0 0 0 0 0 0 0 0 0 0 0 0 0 0 0 0 0 0 0 0 0 0 0 0 0 0 0 0 0 0 0 1
0 0 0 0 0 0 0 0 0 0 0 0 0 0 0 0 0 0 0 0 0 0 0 0 0 0 0 0 0 0 0 0 0 0 0 0 0 0 0 0 0 0 0
0 0 0 0 0 0 0 0 0 0 0 0 0 0 0 0 0 0 0 0 0 0 0 0 0 0 0 0 0 0 0 0 0 0 0 0 0 0 0 0 0 0 0
0 0 0 0 0 0 0 0 0 0 0 0 0 0 0 0 0 0 0 0 0 0 0 0 0 0 0 0 0 0 0 0 0 0 0 0 0 0 0 0 0 0 0
1 1 0 0 0 0 0 0 0 0 0 0 0 0 0 0 0 0 0 0 0 0 0 0 0 0 0 0 0 0 0 0 0 0 0 0 0 0 0 0 0 0 0
1 1 1 1 0 0 0 0 0 0 0 0 0 0 1 0 0 0 0 0 0 0 0 0 0 0 0 0 0 0 1 1 0 0 0 0 0 0 0 0 0 0 0
2 1 1 1 1 1 0 0 0 0 0 0 1 1 1 1 0 0 0 0 0 0 0 0 0 0 0 0 0 0 1 1 0 0 0 0 0 0 0 0 0 0 0
3 2 1 1 1 1 1 0 0 0 1 1 1 1 1 1 1 0 0 0 0 0 0 0 0 0 0 0 0 0 1 1 0 0 0 0 0 0 0 0 0 0 0
4 3 2 1 1 1 1 1 1 1 1 1 1 1 1 1 1 0 0 0 0 0 0 0 0 0 0 0 0 0 1 1 0 0 0 0 0 0 0 0 0 0 0
4 3 2 1 1 1 1 1 1 1 1 1 1 1 1 0 0 0 0 1 0 0 0 0 0 0 0 0 1 1 1 1 0 0 0 0 0 0 0 0 0 0 0
4 4 3 3 2 1 1 1 1 1 1 1 1 1 1 1 1 1 1 1 1 0 0 0 0 0 0 0 1 1 1 0 0 0 0 0 0 0 0 0 0 0 0
5 5 5 5 4 3 2 2 1 1 1 1 1 1 1 1 1 1 2 2 1 1 1 0 0 0 0 0 0 1 0 0 0 0 0 0 0 0 0 0 0 0 0
5 5 7 8 7 6 4 3 2 2 2 2 2 3 3 3 2 2 2 2 2 1 1 1 0 0 0 0 0 0 0 0 0 0 0 0 0 0 0 0 0 0 0
5 6 7 8 8 8 6 4 3 3 3 4 5 5 5 3 2 1 1 1 1 1 1 0 0 0 0 0 0 0 0 0 0 0 0 0 0 0 0 0 0 0 0
7 7 8 7 8 8 8 6 5 5 6 7 7 7 4 2 1 1 1 1 1 1 1 0 0 0 0 0 0 0 0 0 0 0 0 0 0 0 0 0 0 0 0
8 8 7 7 8 9 8 7 6 6 8 9 9 6 3 1 1 1 1 1 1 1 1 1 0 0 0 0 0 0 0 0 0 0 0 0 0 0 1 0 0 0 0
8 8 8 7 8 9 9 8 7 7 9 10 8 5 2 1 1 1 1 1 1 1 1 1 1 0 0 0 0 0 0 0 0 0 0 1 1 1 1 1 1 1 0
10 9 9 8 8 8 8 7 6 8 9 9 7 3 1 1 1 1 1 1 1 1 1 1 1 1 1 0 0 0 0 0 0 0 0 1 1 1 1 1 1 1 1
11 10 9 8 8 7 7 5 5 7 8 7 5 3 1 1 1 1 1 1 1 1 1 1 1 1 1 1 0 1 1 1 1 0 0 0 1 1 1 1 1 1 1
10 9 8 7 7 6 5 4 5 5 6 5 3 2 1 1 1 1 1 1 1 1 1 1 1 1 1 1 1 1 1 1 1 1 0 0 1 1 1 1 1 1 1
8 8 7 6 5 5 4 4 4 5 4 3 3 2 2 1 1 1 1 1 1 1 1 1 1 1 1 1 1 1 1 1 1 1 1 1 1 1 1 1 2 2 2
7 6 5 5 4 4 4 4 4 4 3 3 3 3 2 2 2 2 1 1 1 1 1 1 1 1 1 1 1 1 1 1 0 1 1 1 1 1 1 1 1 2 2
5 5 4 4 4 3 3 3 4 4 3 3 3 3 3 3 3 2 2 2 2 2 1 1 1 1 1 1 1 1 1 1 1 1 1 1 1 1 1 1 1 2 2
4 4 4 4 4 3 3 3 3 3 3 4 4 4 3 3 3 2 2 2 2 2 2 2 1 1 1 1 1 1 1 1 1 1 1 1 1 1 1 1 1 2 2
3 3 4 4 4 4 4 4 4 3 3 4 4 4 3 3 3 2 2 2 2 2 2 2 1 1 1 1 1 1 1 1 1 1 1 1 1 1 1 1 1 1 2
Wind_Speed
16 15 14 14 13 13 13 13 13 13 13 13 13 13 13 13 13 13 13 13 13 13 13 13 13 13 14 14 15 15 15 16 16 17 17 16 15 14 13 14 15 12 16
18 16 15 14 14 13 13 13 13 12 12 12 12 12 12 12 12 12 13 12 13 13 13 13 13 13 13 14 14 14 14 15 16 16 16 16 15 15 13 14 15 11 15
18 16 15 14 14 14 13 13 12 12 12 12 11 11 11 11 11 12 12 12 13 13 13 13 13 13 13 13 13 12 12 13 13 14 14 11 12 15 15 16 16 15 15
19 16 15 14 14 14 13 12 12 12 12 11 11 11 11 11 11 12 12 12 12 13 13 13 13 13 13 12 11 10 10 10 10 9 7 9 10 14 15 15 15 14 14
18 16 16 15 14 14 13 12 12 12 11 11 11 10 10 11 11 12 12 12 12 13 13 13 13 13 12 11 9 8 7 7 7 8 9 9 8 13 14 14 14 14 14
19 17 16 15 15 14 13 12 12 11 11 11 10 10 10 11 11 11 12 12 12 12 12 13 12 12 11 9 7 5 4 3 4 9 9 9 8 11 13 13 13 14 14
18 17 16 15 14 14 13 12 12 11 11 10 10 10 10 11 11 12 12 12 12 12 12 12 12 11 10 8 6 3 2 2 5 9 9 9 8 11 13 13 13 13 13
18 17 15 15 14 14 13 12 12 11 10 10 10 10 10 11 11 11 11 11 12 12 12 11 11 10 9 7 4 1 3 2 9 11 10 9 9 11 12 12 12 12 12
18 17 14 13 13 13 13 12 12 11 10 10 10 10 10 11 11 11 11 11 11 11 11 11 10 10 8 5 2 1 4 4 5 7 11 7 10 11 11 11 12 12 12
14 15 14 13 12 11 11 12 11 11 10 10 10 10 10 10 11 11 11 10 11 10 10 10 9 8 7 4 1 2 5 4 5 9 8 8 11 11 11 11 11 11 11
11 11 12 13 12 11 11 12 11 11 10 10 8 9 9 7 8 8 11 11 10 10 9 9 8 7 6 4 3 3 4 1 6 7 7 11 11 11 11 11 11 10 10
11 10 8 11 11 10 9 9 7 7 7 6 5 7 4 3 4 8 10 11 10 9 8 8 8 7 6 4 4 4 2 2 6 7 7 12 11 11 10 10 10 10 9
10 9 9 9 8 8 7 7 4 4 5 5 5 5 3 3 4 6 5 6 6 8 6 6 6 4 3 2 2 2 1 2 4 6 8 12 11 10 10 9 9 9 9
9 8 8 8 6 5 5 5 5 4 4 4 4 4 3 2 2 4 3 4 4 3 3 4 2 2 2 2 2 1 1 2 5 6 7 12 10 10 10 9 9 9 9
9 8 7 7 6 5 4 2 4 4 4 5 4 3 4 3 2 3 2 2 3 3 3 2 2 2 2 1 2 2 2 2 5 7 6 11 11 9 9 9 9 9 9
8 7 7 7 7 5 3 1 2 3 3 4 4 5 3 3 3 3 2 1 1 2 2 2 2 2 1 1 1 2 2 2 3 6 7 8 10 10 9 9 9 9 9
9 8 7 7 8 6 5 4 3 2 4 3 4 5 4 4 4 3 2 2 2 2 2 2 2 2 2 2 2 2 2 2 3 4 7 6 7 9 10 10 9 9 9
9 9 7 7 8 7 5 3 2 2 3 3 3 4 4 5 5 3 2 2 2 2 2 2 1 1 1 2 2 2 2 2 3 3 5 6 6 6 9 11 10 10 10
9 8 7 5 7 7 6 4 2 1 2 3 3 4 4 4 4 3 2 2 3 2 2 2 2 1 1 2 2 2 2 3 3 4 4 5 6 6 7 10 12 11 12
8 8 8 6 6 6 5 3 2 2 2 3 3 4 5 4 4 3 3 4 3 2 2 1 1 1 1 1 2 2 3 3 3 3 4 4 5 7 8 8 8 9 12
8 8 8 8 7 5 4 4 4 3 3 3 3 5 5 4 4 3 2 3 2 2 2 3 2 2 2 2 1 1 2 3 4 3 3 3 4 5 5 8 7 6 6
8 8 7 7 7 7 5 3 3 3 2 3 3 5 5 5 5 5 3 3 3 2 3 2 2 1 2 2 2 1 1 1 2 5 4 4 4 4 5 8 7 7 6
8 8 7 7 7 7 6 4 3 3 2 2 3 3 4 5 5 4 4 3 3 3 3 4 3 3 2 2 2 1 1 1 1 2 4 4 4 4 3 4 6 7 7
8 7 6 6 6 6 6 6 7 6 5 4 4 4 4 5 5 4 4 4 3 2 3 4 4 3 3 2 2 2 2 2 1 1 1 1 2 3 3 3 3 5 5
7 7 7 6 5 6 6 6 5 5 4 3 3 4 4 4 4 5 5 4 4 3 3 3 2 2 2 3 2 1 2 2 3 2 2 1 1 2 2 1 0 2 4
7 7 7 6 5 5 6 5 5 5 4 3 3 4 4 3 4 6 6 5 5 3 3 3 3 4 3 2 1 1 1 1 1 1 2 2 2 1 1 1 1 2 2
Wind_Direction
112 112 114 115 114 114 114 113 112 109 106 102 98 95 94 92 91 91 92 93 94 94 94 94 93 92 91 90 90 91 91 92 94 96 95 93 92 93 96 103 100 97 102
114 115 114 115 115 114 115 115 113 112 108 105 102 99 97 96 95 95 95 95 95 95 96 97 96 96 94 94 95 97 99 100 102 102 98 91 88 87 87 92 94 101 105
116 118 117 115 117 116 116 116 115 113 110 107 105 101 99 99 99 98 97 97 98 99 99 99 99 98 98 98 100 102 106 110 114 113 106 98 91 88 89 93 98 102 104
121 123 116 118 118 118 118 117 115 114 112 110 108 106 104 104 104 101 100 101 101 101 101 100 100 100 100 101 102 106 111 115 120 118 105 99 95 93 94 96 99 101 105
117 114 116 119 118 118 117 117 115 114 114 113 111 109 108 107 105 104 104 103 104 104 104 103 103 102 103 105 106 109 110 114 116 105 90 87 89 100 100 99 101 102 104
119 118 120 120 119 118 118 117 116 116 117 116 115 112 110 109 109 107 106 105 105 105 104 104 104 104 107 108 107 101 98 98 114 105 100 99 98 104 105 104 103 103 103
120 120 125 124 122 122 121 120 119 119 120 118 117 114 111 110 110 109 108 107 106 105 105 105 105 106 107 107 104 89 59 39 108 103 100 97 101 107 108 108 105 106 106
121 122 127 129 129 128 126 125 125 124 121 119 118 117 114 112 111 111 112 110 109 107 107 108 108 108 109 111 105 38 342 6 105 106 102 102 110 110 110 112 111 111 110
123 127 137 138 136 134 132 131 130 128 127 125 123 122 121 119 116 115 114 113 112 110 111 112 112 111 111 115 115 334 340 1 105 113 110 108 115 113 113 116 116 115 115
129 136 143 147 144 146 139 137 136 135 134 134 134 133 131 129 127 126 121 117 116 117 118 120 120 120 122 132 172 300 326 324 113 104 105 116 121 119 119 120 120 119 119
131 138 148 145 152 152 146 142 145 142 143 145 148 150 153 155 143 142 121 126 125 127 131 133 137 140 145 166 218 275 301 264 94 97 102 122 127 126 125 124 124 124 124
140 141 142 144 152 154 144 143 155 157 153 174 158 163 179 164 141 125 133 135 137 140 146 155 162 169 182 181 201 235 256 141 107 106 116 129 129 129 130 131 132 132 130
148 147 145 143 141 142 135 149 153 150 154 175 159 161 168 152 139 131 144 146 153 162 170 164 183 200 194 175 169 195 249 83 97 109 126 133 134 134 136 137 138 138 137
153 149 142 132 130 127 132 141 155 155 154 157 153 170 152 155 148 143 153 160 168 174 166 166 174 168 158 140 122 94 50 71 106 113 133 138 141 143 144 145 145 144 144
151 149 135 127 123 116 111 148 156 145 155 150 152 166 156 152 137 134 138 143 170 154 162 163 135 143 137 128 125 115 80 75 117 124 132 147 150 153 154 155 156 157 158
152 146 138 136 131 132 136 148 129 140 138 153 156 155 160 135 132 135 147 160 158 130 128 132 137 146 135 142 141 139 142 118 104 131 141 155 162 166 168 169 170 170 170
152 148 149 150 147 153 165 183 167 162 154 146 138 145 155 143 138 144 152 189 148 126 128 148 154 154 176 172 159 155 145 136 141 142 150 160 168 178 180 180 182 184 183
153 155 164 169 158 163 171 192 195 172 145 133 138 145 152 141 155 165 173 178 150 151 163 159 179 177 175 168 164 178 154 156 164 172 168 168 171 175 186 191 191 192 195
152 159 166 160 156 168 170 183 202 155 147 149 149 151 155 157 164 175 159 141 171 181 175 188 150 178 185 175 183 184 183 177 175 200 187 177 173 171 175 189 196 199 203
149 156 162 162 167 174 167 170 175 194 174 162 152 153 155 165 176 189 171 166 185 174 164 141 128 196 204 211 228 180 200 184 182 196 207 190 179 182 179 177 188 204 210
155 160 165 170 173 174 171 172 179 190 187 170 166 161 167 180 180 200 194 160 192 178 172 174 172 203 225 211 207 241 241 206 191 195 209 197 189 193 181 170 186 188 198
161 168 175 176 175 178 176 174 175 178 194 182 177 161 177 178 183 194 196 188 188 168 171 188 184 215 242 211 190 204 237 252 235 211 194 202 196 191 195 187 185 182 186
168 177 179 174 175 179 176 181 176 170 191 182 167 172 187 185 193 201 176 197 191 190 184 193 201 205 237 256 221 185 181 209 260 260 208 200 192 194 199 195 188 179 188
174 174 164 170 174 174 183 195 190 188 191 190 181 180 186 194 196 192 190 197 203 204 182 202 200 204 218 246 238 221 221 170 172 267 276 213 204 196 203 216 192 172 178
167 163 162 166 174 179 192 202 201 199 197 187 180 172 185 193 200 205 196 194 201 214 203 200 175 204 220 233 243 241 245 222 212 193 229 237 220 203 189 184 185 144 158
156 158 163 164 175 185 194 202 204 204 193 189 190 177 191 198 203 213 200 189 198 208 201 199 195 206 220 233 256 257 244 235 231 219 222 223 220 218 167 154 139 142 140